Skip Page Navigation
NASA JPL Caltech
NASA Logo - Jet Propulsion Laboratory + View the NASA Portal
+ Center for Near-Earth Object Studies
JPL Home Earth Solar System Stars & Galaxies Technology
JPL Solar System Dynamics
BODIES ORBITS EPHEMERIDES TOOLS PHYSICAL DATA DISCOVERY FAQ SITE MAP
IMPORTANT: The SSD Announcement email list is now available. Major changes are coming in the near future, including possible hostname and/or URL changes. To be notified of such changes, subscribe to this email list.

Please visit this page for more details.


JPL Small-Body Database Browser
Search: [ help ]  
95694 (2002 JS70)
Classification: Main-belt Asteroid          SPK-ID: 2095694
Ephemeris | Orbit Diagram | Orbital Elements | Mission Design | Physical Parameters | Discovery Circumstances | Close-Approach Data ]

[ show orbit diagram ]
Orbital Elements at Epoch 2459000.5 (2020-May-31.0) TDB
Reference: JPL 16 (heliocentric ecliptic J2000)
 Element Value Uncertainty (1-sigma)   Units 
e .06128017778522895 6.1062e-08  
a 2.66440737445353 2.1489e-08 au
q 2.501132016854743 1.5851e-07 au
i 21.39241566982678 8.4632e-06 deg
node 211.8004907356821 1.2303e-05 deg
peri 232.7275793869607 7.6195e-05 deg
M 173.4973178406809 7.0484e-05 deg
tp 2458234.921670325742
(2018-Apr-26.42167033)
0.00031379 TDB
period 1588.544434651251
4.35
1.9218e-05
5.262e-08
d
yr
n .2266225559368973 2.7416e-09 deg/d
Q 2.827682732052318 2.2806e-08 au
  Orbit Determination Parameters
   # obs. used (total)      531  
   data-arc span      7648 days (20.94 yr)  
   first obs. used      1998-06-02  
   last obs. used      2019-05-11  
   planetary ephem.      DE431  
   SB-pert. ephem.      SB431-N16  
   condition code      0  
   norm. resid. RMS      .57944  
   source      ORB  
   producer      Otto Matic  
   solution date      2019-May-30 06:11:16  

Additional Information
 Earth MOID = 1.54775 au 
 Jupiter MOID = 2.39563 au 
 T_jup = 3.283 
[ show covariance matrix ]

Ephemeris | Orbit Diagram | Orbital Elements | Mission Design | Physical Parameters | Discovery Circumstances | Close-Approach Data ]

Physical Parameter Table
Parameter Symbol Value Units Sigma Reference Notes
absolute magnitude H 15.2   n/a MPO436439  
diameter diameter 3.265 km 0.779 urn:nasa:pds:neowise_diameters_albedos::2.0[mainbelt] (http://adsabs.harvard.edu/abs/2011ApJ...741...68M)  
geometric albedo albedo 0.166   0.076 urn:nasa:pds:neowise_diameters_albedos::2.0[mainbelt] (http://adsabs.harvard.edu/abs/2011ApJ...741...68M)  

95694 (2002 JS70)          Discovered 2002-May-08 by LINEAR at Socorro
Reference: 20041028/Numbers.arcLast Updated: 2004-10-29

[ show close-approach data ]
Ephemeris | Orbit Diagram | Orbital Elements | Mission Design | Physical Parameters | Discovery Circumstances | Close-Approach Data ]
ABOUT SSD CREDITS/AWARDS PRIVACY/COPYRIGHT GLOSSARY LINKS
FirstGov 2020-Feb-23 08:04 UT
(server date/time)  
NASA Home Page
Site Manager:   Ryan S. Park
Webmaster  Alan B. Chamberlin